This is the latest recevied weather packets stored in our database for station/object K6GMW. If no packets are shown the sender has not sent any weather packets the latest 10 day(s).
| Time | Temp. | Humidity | Pressure | Rain* | Wind** | Luminosity | Snow |
|---|---|---|---|---|---|---|---|
| 1787927756 | 30.56° C | 72% | 1019.5 hPa | 0 mm | - | 489 W/m² | - |
| 1787927447 | 30.56° C | 73% | 1019.3 hPa | 0 mm | - | 467 W/m² | - |
| 1787927143 | 30.56° C | 71% | 1019.4 hPa | 0 mm | - | 450 W/m² | - |
| 1787926843 | 30.56° C | 72% | 1019.4 hPa | 0 mm | - | 435 W/m² | - |
| 1787926543 | 30.56° C | 72% | 1019 hPa | 0 mm | - | 413 W/m² | - |
| 1787926241 | 30° C | 74% | 1019.3 hPa | 0 mm | - | 393 W/m² | - |
| 1787925937 | 30° C | 74% | 1019.3 hPa | 0 mm | - | 374 W/m² | - |
| 1787925636 | 29.44° C | 76% | 1019.3 hPa | 0 mm | - | 354 W/m² | - |
| 1787925331 | 28.33° C | 77% | 1019.1 hPa | 0 mm | - | 334 W/m² | - |
| 1787925030 | 27.78° C | 79% | 1019.2 hPa | 0 mm | - | 311 W/m² | - |
| 1787924725 | 27.22° C | 81% | 1019.4 hPa | 0 mm | - | 290 W/m² | - |
| 1787924420 | 26.67° C | 82% | 1019.4 hPa | 0 mm | - | 196 W/m² | - |
| 1787924115 | 26.11° C | 86% | 1019.2 hPa | 0 mm | - | 132 W/m² | - |
| 1787923815 | 25.56° C | 88% | 1019.3 hPa | 0 mm | - | 134 W/m² | - |
| 1787923509 | 25° C | 91% | 1019.2 hPa | 0 mm | - | 93 W/m² | - |
| 1787923205 | 24.44° C | 93% | 1019.2 hPa | 0 mm | - | 88 W/m² | - |
| 1787922901 | 23.89° C | 94% | 1019.2 hPa | 0 mm | - | 85 W/m² | - |
| 1787922599 | 23.33° C | 94% | 1019.1 hPa | 0 mm | - | 84 W/m² | - |
| 1787922299 | 23.33° C | 95% | 1019.3 hPa | 0 mm | - | 77 W/m² | - |
| 1787921995 | 22.78° C | 95% | 1019.3 hPa | 0 mm | - | 72 W/m² | - |
| 1787921691 | 22.78° C | 95% | 1019.2 hPa | 0 mm | - | 69 W/m² | - |
| 1787921390 | 22.22° C | 95% | 1019.1 hPa | 0 mm | - | 75 W/m² | - |
| 1787921086 | 22.22° C | 96% | 1019.1 hPa | 0 mm | - | 59 W/m² | - |
| 1787920786 | 21.67° C | 95% | 1019 hPa | 0 mm | - | 53 W/m² | - |
| 1787920486 | 21.67° C | 95% | 1019.1 hPa | 0 mm | - | 48 W/m² | - |
* Rain latest hour (hover to see other rain measurements)
** Current wind speed in m/s (hover to see current wind gust speed)